STARLINK-31873, 59790

Orbit data source: Space-Track

STARLINK-31873, 59790 is a payload satellite owned by SpaceX/Seattle (US) in LEO that was launched on Sat, 18 May 2024 UTC via an FALCON 9 launch vehicle from the Air Force Eastern Test Range (AFETR). Payloads include a variety of satellites, spacecraft, and rockets equipped with specific instruments for various scientific and technological missions. These include communications satellites like Starlink; space stations such as the ISS; scientific satellites like the Hubble; Earth observation satellites from companies like Planet Labs, Umbra, and HawkEye 360; GPS; miniature CubeSats for education and research; and military/defense satellites.

Loading next visibility...
STARLINK-31873 details
Identifier
59790, 2024-093J
Orbit
LEO
Last TLE update18 hours ago
Origin
Flag of USSpaceX/Seattle (US)
ManufacturerSpaceX/Seattle
MissionOperational spacecraft
Bus & MotorSTARLINK V2M, Unknown motor
Mass730 kg wet, ~700 kg dry
Launch date (UTC)
2024-05-18 (8 months ago)
Launch vehicle
FALCON 9
Launch site
Air Force Eastern Test Range (AFETR)
Object type
Payload
Rocket body
Debris
Shape & HBRUnknown
Radar Cross SectionLarge (>1 m²)

Expand to show TLE details & history

TLE from 18 hours ago
0 STARLINK-31873
1 59790U 24093J   25014.54721110 -.00001681  00000-0 -33001-4 0  9990
2 59790  43.0027  61.1272 0001560 218.4060 141.6686 15.40680340 38532
Epoch: 2025-01-14T13:07Z
Definitive object data (Epoch: 2025-01-14T13:07:59.039Z)
Latitude0.00002°
Longitude109.87889°
Altitude444.709 km
Speed7.647 km/s
True Right ascension04h 04m 30s
True Declination0° 00' 00"
Sunlit
Object was in full shadow at TLE epoch
Visualization TLE readout
Latitude27.68117°
Longitude-108.38654°
Altitude444.248 km
Speed7.65 km/s
Apparent Right ascension16h 06m 54s
Apparent Declination-6° 42' 55"
Sunlit
Object is in daylight
Visualization observer readout
Local Sidereal Time07:29:54
Azimuth67.822° E
Elevation-33.847°
Doppler factor1
Orbital elements
Apogee altitude447.121 km
Perigee altitude444.991 km
Semi-major axis6,824.193 km
Eccentricity0.000156
Inclination43.0027°
RAAN61.1272°
Arg. of periapsis218.406°
True anomaly141.67969°
Mean anomaly141.6686°
Eccentric anomaly141.67414°
Mean motion3.85005 °/min
BSTAR-0.000033001
Orbital period93.51 mins
Loading maneuver chart data...
Loading historical data...
Loading historical data...
Loading historical data...
Loading historical data...
Loading historical data...
Loading historical data...
Loading historical data...

STARLINK-31873 Visibility forecast

Observer location: undefined°, undefined

Span
Click to sort rows by Start time (UTC) header in descending order
Start Az.
Max El. time (UTC)
Max El. Az.
Max El.
End time (UTC)
End Az.
6 mins2025-01-15 08:05:27.503Z269.502° W2025-01-15 08:08:27.503Z328.958° NNW40.109°2025-01-15 08:11:27.503Z68.059° E
4 mins2025-01-15 09:45:27.503Z302.057° NW2025-01-15 09:47:27.503Z39.105° NE37.283°2025-01-15 09:49:27.503Z81.662° E
5 mins2025-01-15 11:23:27.503Z272.779° WNW2025-01-15 11:25:27.503Z178.367° S38.729°2025-01-15 11:28:27.503Z126.191° SE
5 mins2025-01-16 05:48:27.503Z205.507° SW2025-01-16 05:50:27.503Z145.884° SSE30.193°2025-01-16 05:53:27.503Z84.064° E
|